SES-5

Last updated on Dec. 5, 2020, 6:14 a.m. UTC

1 38652U 12036A   20339.19491189  .00000051  00000-0  00000-0 0  9991
2 38652   0.0499  86.6751 0002238 164.4297 257.5309  1.00271335 24233
UTC
Height (km)
Latitude
Longitude
Inclination
Orbital Period
UTC large
Height (km)
Speed (km/s)
/
Latitude / Longitude
Inclination (degrees)
Orbital Period (minutes)
Azimuth
Elevation
Range (km)
Doppler Factor
iOS Compass Heading
iOS Angle

Next 30 passes for location: Hong Kong

Rise time Rise Azimuth (degrees) Set time Set Azimuth (degrees) Duration Max altitude (degrees)

No matching passes for this satellites